| time (UTC) | temp F | wind direction | speed MPH | gust MPH | rain 1hr in | rain 24hr in | rain mn in | humidity % | barometer mb |
| 20260906060004 | 52 | 45 | 0.0 | 2.0 | 0.00 | 0.00 | 0.00 | 82 | 1008.6 |
| 20260906055504 | 52 | 45 | 0.0 | 2.0 | 0.00 | 0.00 | 0.00 | 83 | 1008.4 |
| 20260906055003 | 51 | 45 | 0.0 | 2.0 | 0.00 | 0.00 | 0.00 | 83 | 1008.5 |
| 20260906054505 | 51 | 315 | 0.0 | 1.0 | 0.00 | 0.00 | 0.00 | 84 | 1008.4 |
| 20260906054003 | 51 | 227 | 0.0 | 2.0 | 0.00 | 0.00 | 0.00 | 83 | 1008.4 |
| 20260906053713 | 51 | 165 | 0.0 | 2.0 | 0.00 | 0.00 | 0.00 | 83 | 1008.4 |
| 20260906053003 | 51 | 78 | 1.0 | 2.0 | 0.00 | 0.00 | 0.00 | 84 | 1008.3 |
| 20260906052503 | 51 | 78 | 2.0 | 2.0 | 0.00 | 0.00 | 0.00 | 85 | 1008.5 |
| 20260906052003 | 51 | 38 | 2.0 | 4.0 | 0.00 | 0.00 | 0.00 | 86 | 1008.4 |
| 20260906051504 | 50 | 4 | 2.0 | 4.0 | 0.00 | 0.00 | 0.00 | 88 | 1008.3 |
| 20260906051003 | 50 | 76 | 1.0 | 3.0 | 0.00 | 0.00 | 0.00 | 90 | 1008.2 |
| 20260906050504 | 49 | 80 | 1.0 | 3.0 | 0.00 | 0.00 | 0.00 | 91 | 1008.0 |
| 20260906050004 | 49 | 48 | 1.0 | 2.0 | 0.00 | 0.00 | 0.00 | 91 | 1008.0 |
| 20260906045503 | 48 | 38 | 1.0 | 4.0 | 0.00 | 0.00 | 0.00 | 92 | 1007.9 |
| 20260906045004 | 47 | 34 | 2.0 | 4.0 | 0.00 | 0.00 | 0.00 | 93 | 1007.8 |
| 20260906044503 | 48 | 2 | 2.0 | 3.0 | 0.00 | 0.00 | 0.00 | 93 | 1008.0 |
| 20260906044216 | 48 | 2 | 2.0 | 3.0 | 0.00 | 0.00 | 0.00 | 93 | 1007.9 |
| 20260906043503 | 46 | 7 | 1.0 | 3.0 | 0.00 | 0.00 | 0.00 | 93 | 1007.6 |
| 20260906043003 | 46 | 9 | 1.0 | 3.0 | 0.00 | 0.00 | 0.00 | 93 | 1007.7 |
| 20260906042715 | 45 | 22 | 0.0 | 2.0 | 0.00 | 0.00 | 0.00 | 93 | 1007.8 |
| 20260906042005 | 45 | 30 | 1.0 | 2.0 | 0.00 | 0.00 | 0.00 | 92 | 1007.7 |
| 20260906041504 | 45 | 24 | 0.0 | 2.0 | 0.00 | 0.00 | 0.00 | 92 | 1007.7 |
| 20260906041214 | 45 | 22 | 0.0 | 1.0 | 0.00 | 0.00 | 0.00 | 92 | 1007.5 |
| 20260906040503 | 45 | 22 | 0.0 | 2.0 | 0.00 | 0.00 | 0.00 | 92 | 1007.4 |
| 20260906040004 | 45 | 22 | 0.0 | 1.0 | 0.00 | 0.00 | 0.00 | 92 | 1007.5 |
| 20260906035713 | 45 | 15 | 0.0 | 1.0 | 0.00 | 0.00 | 0.00 | 92 | 1007.5 |
| 20260906035216 | 45 | 15 | 0.0 | 1.0 | 0.00 | 0.00 | 0.00 | 92 | 1007.3 |
| 20260906034504 | 45 | 22 | 0.0 | 1.0 | 0.00 | 0.00 | 0.00 | 92 | 1007.3 |
| 20260906034003 | 46 | 15 | 0.0 | 2.0 | 0.00 | 0.00 | 0.00 | 92 | 1007.3 |
| 20260906033503 | 46 | 17 | 1.0 | 2.0 | 0.00 | 0.00 | 0.00 | 92 | 1007.2 |
| 20260906033003 | 46 | 33 | 1.0 | 3.0 | 0.00 | 0.00 | 0.00 | 93 | 1007.1 |
| 20260906032503 | 46 | 38 | 2.0 | 4.0 | 0.00 | 0.00 | 0.00 | 93 | 1007.0 |
| 20260906032004 | 46 | 34 | 2.0 | 4.0 | 0.00 | 0.00 | 0.00 | 93 | 1007.0 |
| 20260906031504 | 46 | 31 | 2.0 | 3.0 | 0.00 | 0.00 | 0.00 | 93 | 1006.8 |
| 20260906031003 | 46 | 38 | 1.0 | 3.0 | 0.00 | 0.00 | 0.00 | 93 | 1006.8 |
| 20260906030504 | 46 | 53 | 1.0 | 4.0 | 0.00 | 0.00 | 0.00 | 93 | 1006.7 |
| 20260906030004 | 46 | 46 | 1.0 | 4.0 | 0.00 | 0.00 | 0.00 | 92 | 1006.8 |
| 20260906025713 | 46 | 49 | 1.0 | 4.0 | 0.00 | 0.00 | 0.00 | 92 | 1006.6 |
| 20260906025003 | 45 | 30 | 1.0 | 2.0 | 0.00 | 0.00 | 0.00 | 92 | 1006.6 |
| 20260906024503 | 45 | 25 | 1.0 | 2.0 | 0.00 | 0.00 | 0.00 | 91 | 1006.5 |
| 20260906024003 | 45 | 28 | 1.0 | 2.0 | 0.00 | 0.00 | 0.00 | 91 | 1006.5 |
| 20260906023503 | 45 | 30 | 1.0 | 2.0 | 0.00 | 0.00 | 0.00 | 91 | 1006.4 |
| 20260906023003 | 45 | 15 | 0.0 | 2.0 | 0.00 | 0.00 | 0.00 | 91 | 1006.3 |
| 20260906022503 | 46 | 18 | 1.0 | 2.0 | 0.00 | 0.00 | 0.00 | 91 | 1006.3 |
| 20260906022003 | 46 | 25 | 1.0 | 2.0 | 0.00 | 0.00 | 0.00 | 91 | 1006.3 |
| 20260906021717 | 46 | 26 | 1.0 | 2.0 | 0.00 | 0.00 | 0.00 | 91 | 1006.1 |
| 20260906021003 | 46 | 26 | 1.0 | 2.0 | 0.00 | 0.00 | 0.00 | 91 | 1006.0 |
| 20260906020503 | 46 | 34 | 1.0 | 3.0 | 0.00 | 0.00 | 0.00 | 91 | 1005.9 |
| 20260906020004 | 46 | 36 | 1.0 | 3.0 | 0.00 | 0.00 | 0.00 | 91 | 1006.0 |
| 20260906015503 | 46 | 39 | 2.0 | 3.0 | 0.00 | 0.00 | 0.00 | 91 | 1005.8 |
| 20260906015004 | 46 | 36 | 2.0 | 3.0 | 0.00 | 0.00 | 0.00 | 91 | 1005.8 |
| 20260906014503 | 46 | 31 | 1.0 | 2.0 | 0.00 | 0.00 | 0.00 | 90 | 1005.8 |
| 20260906014003 | 46 | 35 | 1.0 | 3.0 | 0.00 | 0.00 | 0.00 | 90 | 1005.7 |
| 20260906013716 | 46 | 28 | 1.0 | 3.0 | 0.00 | 0.00 | 0.00 | 90 | 1005.6 |
| 20260906013003 | 47 | 29 | 1.0 | 3.0 | 0.00 | 0.00 | 0.00 | 89 | 1005.6 |
| 20260906012717 | 47 | 30 | 1.0 | 2.0 | 0.00 | 0.00 | 0.00 | 89 | 1005.6 |
| 20260906012215 | 47 | 34 | 1.0 | 4.0 | 0.00 | 0.00 | 0.00 | 89 | 1005.6 |
| 20260906011503 | 47 | 44 | 2.0 | 4.0 | 0.00 | 0.00 | 0.00 | 89 | 1005.6 |
| 20260906011003 | 47 | 51 | 1.0 | 4.0 | 0.00 | 0.00 | 0.00 | 89 | 1005.5 |
| 20260906010503 | 47 | 55 | 2.0 | 4.0 | 0.00 | 0.00 | 0.00 | 89 | 1005.4 |
| 20260906010004 | 48 | 49 | 1.0 | 4.0 | 0.00 | 0.00 | 0.00 | 89 | 1005.5 |
| 20260906005503 | 48 | 39 | 1.0 | 3.0 | 0.00 | 0.00 | 0.00 | 88 | 1005.4 |
| 20260906005212 | 48 | 34 | 1.0 | 3.0 | 0.00 | 0.00 | 0.00 | 88 | 1005.3 |
| 20260906004504 | 48 | 34 | 2.0 | 4.0 | 0.00 | 0.00 | 0.00 | 88 | 1005.3 |
| 20260906004003 | 48 | 29 | 1.0 | 4.0 | 0.00 | 0.00 | 0.00 | 88 | 1005.2 |
| 20260906003716 | 48 | 19 | 1.0 | 4.0 | 0.00 | 0.00 | 0.00 | 87 | 1005.0 |
| 20260906003004 | 48 | 28 | 1.0 | 4.0 | 0.00 | 0.00 | 0.00 | 86 | 1005.2 |
| 20260906002503 | 48 | 28 | 1.0 | 2.0 | 0.00 | 0.00 | 0.00 | 85 | 1005.1 |
| 20260906002003 | 48 | 28 | 1.0 | 2.0 | 0.00 | 0.00 | 0.00 | 85 | 1005.0 |
| 20260906001503 | 49 | 30 | 1.0 | 2.0 | 0.00 | 0.00 | 0.00 | 85 | 1005.0 |
| 20260906001003 | 49 | 32 | 1.0 | 2.0 | 0.00 | 0.00 | 0.00 | 84 | 1004.8 |
| 20260906000714 | 49 | 40 | 1.0 | 5.0 | 0.00 | 0.00 | 0.00 | 84 | 1004.8 |
| 20260906000219 | 49 | 29 | 2.0 | 5.0 | 0.00 | 0.00 | 0.00 | 84 | 1004.7 |
| 20260905235503 | 50 | 26 | 2.0 | 4.0 | 0.00 | 0.00 | 0.00 | 83 | 1004.6 |
| 20260905235213 | 50 | 25 | 1.0 | 3.0 | 0.00 | 0.00 | 0.00 | 83 | 1004.5 |
| 20260905234716 | 50 | 30 | 2.0 | 3.0 | 0.00 | 0.00 | 0.00 | 82 | 1004.4 |
| 20260905234003 | 50 | 50 | 3.0 | 4.0 | 0.00 | 0.00 | 0.00 | 81 | 1004.4 |
| 20260905233503 | 50 | 46 | 3.0 | 6.0 | 0.00 | 0.00 | 0.00 | 81 | 1004.2 |
| 20260905233003 | 50 | 32 | 3.0 | 6.0 | 0.00 | 0.00 | 0.00 | 82 | 1004.4 |
| 20260905232503 | 50 | 37 | 4.0 | 7.0 | 0.00 | 0.00 | 0.00 | 81 | 1004.2 |
| 20260905232216 | 50 | 37 | 3.0 | 7.0 | 0.00 | 0.00 | 0.00 | 81 | 1004.3 |
| 20260905231714 | 50 | 28 | 3.0 | 5.0 | 0.00 | 0.00 | 0.00 | 81 | 1004.1 |
| 20260905231003 | 51 | 37 | 3.0 | 5.0 | 0.00 | 0.00 | 0.00 | 81 | 1003.9 |
| 20260905230503 | 51 | 37 | 2.0 | 4.0 | 0.00 | 0.00 | 0.00 | 81 | 1003.9 |
| 20260905230213 | 51 | 46 | 2.0 | 3.0 | 0.00 | 0.00 | 0.00 | 81 | 1003.8 |
| 20260905225503 | 51 | 45 | 2.0 | 3.0 | 0.00 | 0.00 | 0.00 | 81 | 1003.8 |
| 20260905225003 | 51 | 48 | 2.0 | 3.0 | 0.00 | 0.00 | 0.00 | 81 | 1003.8 |
| 20260905224504 | 51 | 39 | 2.0 | 5.0 | 0.00 | 0.00 | 0.00 | 81 | 1003.5 |
| 20260905224003 | 51 | 28 | 3.0 | 7.0 | 0.00 | 0.00 | 0.00 | 81 | 1003.7 |
| 20260905223503 | 51 | 27 | 2.0 | 7.0 | 0.00 | 0.00 | 0.00 | 81 | 1003.7 |
| 20260905223004 | 52 | 50 | 1.0 | 5.0 | 0.00 | 0.00 | 0.00 | 81 | 1003.7 |
| 20260905222503 | 52 | 54 | 2.0 | 5.0 | 0.00 | 0.00 | 0.00 | 80 | 1003.5 |
| 20260905222004 | 52 | 48 | 3.0 | 5.0 | 0.00 | 0.00 | 0.00 | 80 | 1003.5 |
| 20260905221714 | 52 | 44 | 3.0 | 4.0 | 0.00 | 0.00 | 0.00 | 80 | 1003.4 |
| 20260905221003 | 52 | 26 | 2.0 | 4.0 | 0.00 | 0.00 | 0.00 | 80 | 1003.4 |
| 20260905220716 | 53 | 22 | 1.0 | 4.0 | 0.00 | 0.00 | 0.00 | 80 | 1003.3 |
| 20260905220004 | 53 | 49 | 2.0 | 4.0 | 0.00 | 0.00 | 0.00 | 80 | 1003.1 |
| 20260905215716 | 53 | 50 | 3.0 | 4.0 | 0.00 | 0.00 | 0.00 | 80 | 1003.2 |
| 20260905215003 | 53 | 78 | 3.0 | 4.0 | 0.00 | 0.00 | 0.00 | 80 | 1003.1 |
| 20260905214717 | 54 | 71 | 3.0 | 4.0 | 0.00 | 0.00 | 0.00 | 79 | 1003.1 |
| 20260905214003 | 54 | 36 | 3.0 | 4.0 | 0.00 | 0.00 | 0.00 | 79 | 1002.8 |
| 20260905213503 | 54 | 38 | 3.0 | 4.0 | 0.00 | 0.00 | 0.00 | 80 | 1002.8 |
| 20260905213003 | 55 | 42 | 3.0 | 4.0 | 0.00 | 0.00 | 0.00 | 80 | 1002.8 |
| 20260905212503 | 55 | 61 | 2.0 | 4.0 | 0.00 | 0.00 | 0.00 | 80 | 1002.8 |
| 20260905212003 | 55 | 53 | 2.0 | 4.0 | 0.00 | 0.00 | 0.00 | 81 | 1002.8 |
| 20260905211503 | 55 | 11 | 1.0 | 3.0 | 0.00 | 0.00 | 0.00 | 81 | 1002.7 |
| 20260905211213 | 55 | 4 | 1.0 | 5.0 | 0.00 | 0.00 | 0.00 | 82 | 1002.6 |
| 20260905210503 | 55 | 37 | 2.0 | 5.0 | 0.00 | 0.00 | 0.00 | 83 | 1002.5 |
| 20260905210034 | 55 | 58 | 2.0 | 4.0 | 0.00 | 0.00 | 0.00 | 84 | 1002.4 |
| 20260905205503 | 55 | 61 | 2.0 | 4.0 | 0.00 | 0.00 | 0.00 | 85 | 1002.2 |
| 20260905205003 | 55 | 81 | 2.0 | 3.0 | 0.00 | 0.00 | 0.00 | 86 | 1002.2 |
| 20260905204713 | 55 | 77 | 1.0 | 3.0 | 0.00 | 0.00 | 0.00 | 86 | 1002.1 |
| 20260905204004 | 54 | 57 | 1.0 | 3.0 | 0.00 | 0.00 | 0.00 | 86 | 1002.1 |
| 20260905203503 | 54 | 45 | 0.0 | 2.0 | 0.00 | 0.00 | 0.00 | 86 | 1001.9 |
| 20260905203003 | 54 | 0 | 0.0 | 0.0 | 0.00 | 0.00 | 0.00 | 86 | 1001.9 |
| 20260905202503 | 54 | 0 | 0.0 | 0.0 | 0.00 | 0.00 | 0.00 | 86 | 1001.8 |
| 20260905202213 | 54 | 0 | 0.0 | 0.0 | 0.00 | 0.00 | 0.00 | 86 | 1001.9 |
| 20260905201503 | 54 | 353 | 0.0 | 2.0 | 0.00 | 0.00 | 0.00 | 86 | 1001.6 |
| 20260905201003 | 54 | 22 | 0.0 | 2.0 | 0.00 | 0.00 | 0.00 | 85 | 1001.7 |
| 20260905200505 | 54 | 45 | 0.0 | 2.0 | 0.00 | 0.00 | 0.00 | 85 | 1001.6 |
| 20260905200004 | 54 | 0 | 0.0 | 0.0 | 0.00 | 0.00 | 0.00 | 84 | 1001.6 |
| 20260905195712 | 54 | 0 | 0.0 | 0.0 | 0.00 | 0.00 | 0.00 | 84 | 1001.5 |
| 20260905195004 | 54 | 0 | 0.0 | 0.0 | 0.00 | 0.00 | 0.00 | 84 | 1001.6 |
| 20260905194505 | 54 | 0 | 0.0 | 0.0 | 0.00 | 0.00 | 0.00 | 84 | 1001.4 |
| 20260905194003 | 54 | 0 | 0.0 | 0.0 | 0.00 | 0.00 | 0.00 | 83 | 1001.4 |
| 20260905193503 | 55 | 0 | 0.0 | 0.0 | 0.00 | 0.00 | 0.00 | 83 | 1001.4 |
| 20260905193003 | 55 | 0 | 0.0 | 0.0 | 0.00 | 0.00 | 0.00 | 83 | 1001.3 |
| 20260905192503 | 55 | 0 | 0.0 | 0.0 | 0.00 | 0.00 | 0.00 | 83 | 1001.3 |
| 20260905192004 | 55 | 0 | 0.0 | 0.0 | 0.00 | 0.00 | 0.00 | 83 | 1001.3 |
| 20260905191504 | 55 | 0 | 0.0 | 0.0 | 0.00 | 0.00 | 0.00 | 83 | 1001.3 |
| 20260905191003 | 55 | 0 | 0.0 | 0.0 | 0.00 | 0.00 | 0.00 | 83 | 1001.3 |
| 20260905190506 | 55 | 0 | 0.0 | 0.0 | 0.00 | 0.00 | 0.00 | 83 | 1001.3 |
| 20260905190004 | 55 | 0 | 0.0 | 0.0 | 0.00 | 0.00 | 0.00 | 82 | 1001.1 |
| 20260905185503 | 55 | 0 | 0.0 | 0.0 | 0.00 | 0.00 | 0.00 | 82 | 1001.3 |
| 20260905185004 | 55 | 0 | 0.0 | 0.0 | 0.00 | 0.00 | 0.00 | 82 | 1001.2 |
| 20260905184503 | 55 | 0 | 0.0 | 0.0 | 0.00 | 0.00 | 0.00 | 82 | 1001.2 |
| 20260905184217 | 55 | 0 | 0.0 | 0.0 | 0.00 | 0.00 | 0.00 | 81 | 1001.0 |
| 20260905183503 | 55 | 0 | 0.0 | 0.0 | 0.00 | 0.00 | 0.00 | 81 | 1001.0 |
| 20260905183003 | 55 | 0 | 0.0 | 0.0 | 0.00 | 0.00 | 0.00 | 80 | 1001.1 |
| 20260905182503 | 55 | 0 | 0.0 | 0.0 | 0.00 | 0.00 | 0.00 | 80 | 1001.1 |
| 20260905182003 | 55 | 0 | 0.0 | 0.0 | 0.00 | 0.00 | 0.00 | 80 | 1001.0 |
| 20260905181717 | 56 | 0 | 0.0 | 0.0 | 0.00 | 0.00 | 0.00 | 80 | 1001.0 |
| 20260905181003 | 56 | 0 | 0.0 | 0.0 | 0.00 | 0.00 | 0.00 | 79 | 1000.9 |
| 20260905180503 | 56 | 0 | 0.0 | 0.0 | 0.00 | 0.00 | 0.00 | 78 | 1000.9 |
| 20260905180004 | 56 | 0 | 0.0 | 0.0 | 0.00 | 0.00 | 0.00 | 78 | 1000.8 |
| 20260905175503 | 56 | 0 | 0.0 | 0.0 | 0.00 | 0.00 | 0.00 | 77 | 1000.8 |
| 20260905175003 | 56 | 0 | 0.0 | 0.0 | 0.00 | 0.00 | 0.00 | 76 | 1000.8 |
| 20260905174503 | 56 | 0 | 0.0 | 0.0 | 0.00 | 0.00 | 0.00 | 76 | 1000.8 |
| 20260905174003 | 56 | 0 | 0.0 | 0.0 | 0.00 | 0.00 | 0.00 | 75 | 1000.8 |
| 20260905173503 | 56 | 0 | 0.0 | 0.0 | 0.00 | 0.00 | 0.00 | 75 | 1000.8 |
| 20260905173004 | 56 | 0 | 0.0 | 0.0 | 0.00 | 0.00 | 0.00 | 75 | 1000.6 |
| 20260905172503 | 56 | 0 | 0.0 | 0.0 | 0.00 | 0.00 | 0.00 | 74 | 1000.6 |
| 20260905172215 | 56 | 0 | 0.0 | 0.0 | 0.00 | 0.00 | 0.00 | 74 | 1000.4 |
| 20260905171503 | 57 | 315 | 0.0 | 1.0 | 0.00 | 0.00 | 0.00 | 73 | 1000.5 |
| 20260905171216 | 57 | 283 | 1.0 | 2.0 | 0.00 | 0.00 | 0.00 | 73 | 1000.4 |
| 20260905170503 | 57 | 264 | 0.0 | 2.0 | 0.00 | 0.00 | 0.00 | 72 | 1000.3 |
| 20260905170217 | 57 | 0 | 0.0 | 0.0 | 0.00 | 0.00 | 0.00 | 71 | 1000.3 |
| 20260905165503 | 58 | 90 | 0.0 | 1.0 | 0.00 | 0.00 | 0.00 | 71 | 1000.1 |
| 20260905165003 | 58 | 90 | 0.0 | 1.0 | 0.00 | 0.00 | 0.00 | 71 | 1000.1 |
| 20260905164503 | 58 | 45 | 0.0 | 2.0 | 0.00 | 0.00 | 0.00 | 70 | 1000.0 |
| 20260905164003 | 58 | 45 | 0.0 | 2.0 | 0.00 | 0.00 | 0.00 | 69 | 1000.1 |
| 20260905163504 | 59 | 0 | 0.0 | 0.0 | 0.00 | 0.00 | 0.00 | 68 | 999.9 |
| 20260905163214 | 59 | 0 | 0.0 | 0.0 | 0.00 | 0.00 | 0.00 | 68 | 1000.0 |
| 20260905162503 | 59 | 6 | 2.0 | 5.0 | 0.00 | 0.00 | 0.00 | 65 | 999.7 |
| 20260905162215 | 59 | 358 | 2.0 | 5.0 | 0.00 | 0.00 | 0.00 | 65 | 999.7 |
| 20260905161503 | 60 | 38 | 2.0 | 4.0 | 0.00 | 0.00 | 0.00 | 63 | 999.7 |
| 20260905161003 | 60 | 360 | 2.0 | 4.0 | 0.00 | 0.00 | 0.00 | 63 | 999.6 |
| 20260905160503 | 60 | 347 | 1.0 | 4.0 | 0.00 | 0.00 | 0.00 | 62 | 999.6 |
| 20260905160004 | 61 | 340 | 2.0 | 6.0 | 0.00 | 0.00 | 0.00 | 61 | 999.4 |
| 20260905155715 | 61 | 20 | 3.0 | 6.0 | 0.00 | 0.00 | 0.00 | 59 | 999.5 |
| 20260905155003 | 61 | 10 | 3.0 | 6.0 | 0.00 | 0.00 | 0.00 | 60 | 999.5 |
| 20260905154503 | 61 | 30 | 3.0 | 6.0 | 0.00 | 0.00 | 0.00 | 60 | 999.4 |
| 20260905154003 | 62 | 102 | 3.0 | 5.0 | 0.00 | 0.00 | 0.00 | 61 | 999.3 |
| 20260905153717 | 62 | 47 | 2.0 | 5.0 | 0.00 | 0.00 | 0.00 | 61 | 999.3 |
| 20260905153004 | 62 | 324 | 1.0 | 3.0 | 0.00 | 0.00 | 0.00 | 60 | 999.2 |
| 20260905152503 | 62 | 317 | 1.0 | 2.0 | 0.00 | 0.00 | 0.00 | 60 | 999.2 |
| 20260905152003 | 63 | 342 | 2.0 | 5.0 | 0.00 | 0.00 | 0.00 | 59 | 999.0 |
| 20260905151504 | 63 | 350 | 2.0 | 5.0 | 0.00 | 0.00 | 0.00 | 57 | 999.1 |
| 20260905151003 | 63 | 356 | 2.0 | 4.0 | 0.00 | 0.00 | 0.00 | 58 | 999.0 |
| 20260905150503 | 63 | 346 | 2.0 | 4.0 | 0.00 | 0.00 | 0.00 | 58 | 999.0 |
| 20260905150004 | 63 | 347 | 2.0 | 5.0 | 0.00 | 0.00 | 0.00 | 57 | 998.9 |
| 20260905145503 | 63 | 348 | 3.0 | 5.0 | 0.00 | 0.00 | 0.00 | 55 | 998.8 |
| 20260905145003 | 63 | 310 | 3.0 | 4.0 | 0.00 | 0.00 | 0.00 | 55 | 998.9 |
| 20260905144717 | 63 | 308 | 3.0 | 4.0 | 0.00 | 0.00 | 0.00 | 55 | 998.8 |
| 20260905144004 | 63 | 305 | 3.0 | 5.0 | 0.00 | 0.00 | 0.00 | 53 | 998.7 |
| 20260905143503 | 63 | 311 | 2.0 | 4.0 | 0.00 | 0.00 | 0.00 | 52 | 998.6 |
| 20260905143003 | 63 | 360 | 2.0 | 4.0 | 0.00 | 0.00 | 0.00 | 50 | 998.6 |
| 20260905142503 | 63 | 340 | 2.0 | 4.0 | 0.00 | 0.00 | 0.00 | 50 | 998.5 |
| 20260905142004 | 63 | 337 | 2.0 | 4.0 | 0.00 | 0.00 | 0.00 | 50 | 998.5 |
| 20260905141503 | 63 | 12 | 3.0 | 5.0 | 0.00 | 0.00 | 0.00 | 49 | 998.5 |
| 20260905141003 | 64 | 9 | 3.0 | 5.0 | 0.00 | 0.00 | 0.00 | 48 | 998.5 |
| 20260905140503 | 64 | 320 | 2.0 | 4.0 | 0.00 | 0.00 | 0.00 | 48 | 998.3 |
| 20260905140004 | 65 | 346 | 2.0 | 4.0 | 0.00 | 0.00 | 0.00 | 46 | 998.3 |
| 20260905135503 | 65 | 317 | 2.0 | 4.0 | 0.00 | 0.00 | 0.00 | 48 | 998.3 |
| 20260905135003 | 65 | 278 | 2.0 | 4.0 | 0.00 | 0.00 | 0.00 | 49 | 998.2 |
| 20260905134503 | 64 | 316 | 2.0 | 4.0 | 0.00 | 0.00 | 0.00 | 52 | 998.1 |
| 20260905134003 | 64 | 18 | 2.0 | 4.0 | 0.00 | 0.00 | 0.00 | 49 | 998.0 |
| 20260905133713 | 64 | 46 | 2.0 | 4.0 | 0.00 | 0.00 | 0.00 | 50 | 998.2 |
| 20260905133003 | 64 | 359 | 2.0 | 4.0 | 0.00 | 0.00 | 0.00 | 50 | 998.2 |
| 20260905132503 | 63 | 312 | 1.0 | 2.0 | 0.00 | 0.00 | 0.00 | 52 | 998.2 |
| 20260905132003 | 63 | 352 | 1.0 | 3.0 | 0.00 | 0.00 | 0.00 | 53 | 998.2 |
| 20260905131715 | 63 | 49 | 2.0 | 5.0 | 0.00 | 0.00 | 0.00 | 51 | 998.1 |
| 20260905131003 | 64 | 349 | 2.0 | 6.0 | 0.00 | 0.00 | 0.00 | 49 | 998.1 |
| 20260905130503 | 65 | 315 | 2.0 | 4.0 | 0.00 | 0.00 | 0.00 | 52 | 998.1 |
| 20260905130004 | 65 | 52 | 2.0 | 8.0 | 0.00 | 0.00 | 0.00 | 51 | 998.0 |
| 20260905125503 | 65 | 52 | 3.0 | 8.0 | 0.00 | 0.00 | 0.00 | 52 | 997.8 |
| 20260905125004 | 65 | 13 | 2.0 | 6.0 | 0.00 | 0.00 | 0.00 | 53 | 997.9 |
| 20260905124503 | 64 | 323 | 2.0 | 3.0 | 0.00 | 0.00 | 0.00 | 51 | 997.8 |
| 20260905124003 | 64 | 323 | 2.0 | 3.0 | 0.00 | 0.00 | 0.00 | 51 | 997.8 |
| 20260905123504 | 64 | 7 | 2.0 | 3.0 | 0.00 | 0.00 | 0.00 | 51 | 997.8 |
| 20260905123217 | 64 | 295 | 1.0 | 3.0 | 0.00 | 0.00 | 0.00 | 51 | 997.9 |
| 20260905122504 | 64 | 274 | 3.0 | 6.0 | 0.00 | 0.00 | 0.00 | 50 | 997.9 |
| 20260905122003 | 64 | 339 | 4.0 | 6.0 | 0.00 | 0.00 | 0.00 | 50 | 997.9 |
| 20260905121503 | 64 | 23 | 3.0 | 8.0 | 0.00 | 0.00 | 0.00 | 52 | 997.8 |
| 20260905121003 | 64 | 54 | 4.0 | 8.0 | 0.00 | 0.00 | 0.00 | 51 | 997.9 |
| 20260905120503 | 63 | 77 | 3.0 | 8.0 | 0.00 | 0.00 | 0.00 | 51 | 997.8 |
| 20260905120004 | 63 | 196 | 2.0 | 6.0 | 0.00 | 0.00 | 0.00 | 53 | 997.8 |
| 20260905115503 | 63 | 21 | 2.0 | 4.0 | 0.00 | 0.00 | 0.00 | 53 | 997.6 |
| 20260905115003 | 64 | 5 | 2.0 | 4.0 | 0.00 | 0.00 | 0.00 | 51 | 997.8 |
| 20260905114713 | 64 | 4 | 2.0 | 4.0 | 0.00 | 0.00 | 0.00 | 53 | 997.7 |
| 20260905114003 | 64 | 6 | 1.0 | 2.0 | 0.00 | 0.00 | 0.00 | 52 | 997.4 |
| 20260905113503 | 64 | 29 | 2.0 | 4.0 | 0.00 | 0.00 | 0.00 | 50 | 997.5 |
| 20260905113004 | 64 | 29 | 2.0 | 4.0 | 0.00 | 0.00 | 0.00 | 48 | 997.6 |
| 20260905112503 | 64 | 51 | 2.0 | 4.0 | 0.00 | 0.00 | 0.00 | 52 | 997.5 |
| 20260905112006 | 63 | 56 | 2.0 | 4.0 | 0.00 | 0.00 | 0.00 | 49 | 997.5 |
| 20260905111503 | 63 | 346 | 1.0 | 3.0 | 0.00 | 0.00 | 0.00 | 50 | 997.5 |
| 20260905111214 | 63 | 318 | 1.0 | 2.0 | 0.00 | 0.00 | 0.00 | 51 | 997.3 |
| 20260905110503 | 63 | 322 | 2.0 | 4.0 | 0.00 | 0.00 | 0.00 | 50 | 997.3 |
| 20260905110004 | 64 | 349 | 2.0 | 4.0 | 0.00 | 0.00 | 0.00 | 50 | 997.3 |
| 20260905105503 | 64 | 24 | 2.0 | 4.0 | 0.00 | 0.00 | 0.00 | 49 | 997.3 |
| 20260905105003 | 64 | 37 | 2.0 | 4.0 | 0.00 | 0.00 | 0.00 | 51 | 997.1 |
| 20260905104503 | 64 | 37 | 3.0 | 4.0 | 0.00 | 0.00 | 0.00 | 51 | 997.2 |
| 20260905104003 | 63 | 256 | 2.0 | 4.0 | 0.00 | 0.00 | 0.00 | 54 | 997.0 |
| 20260905103503 | 63 | 4 | 2.0 | 4.0 | 0.00 | 0.00 | 0.00 | 54 | 997.0 |
| 20260905103003 | 63 | 32 | 2.0 | 4.0 | 0.00 | 0.00 | 0.00 | 54 | 997.1 |
| 20260905102503 | 62 | 309 | 2.0 | 4.0 | 0.00 | 0.00 | 0.00 | 56 | 997.1 |
| 20260905102003 | 63 | 351 | 1.0 | 2.0 | 0.00 | 0.00 | 0.00 | 57 | 996.9 |
| 20260905101503 | 63 | 13 | 1.0 | 3.0 | 0.00 | 0.00 | 0.00 | 55 | 997.1 |
| 20260905101003 | 63 | 27 | 2.0 | 3.0 | 0.00 | 0.00 | 0.00 | 57 | 997.0 |
| 20260905100503 | 62 | 3 | 2.0 | 3.0 | 0.00 | 0.00 | 0.00 | 57 | 997.0 |
| 20260905100003 | 62 | 292 | 1.0 | 2.0 | 0.00 | 0.00 | 0.00 | 59 | 996.9 |
| 20260905095503 | 62 | 13 | 2.0 | 3.0 | 0.00 | 0.00 | 0.00 | 58 | 996.8 |
| 20260905095003 | 61 | 28 | 2.0 | 3.0 | 0.00 | 0.00 | 0.00 | 58 | 996.7 |
| 20260905094503 | 61 | 117 | 2.0 | 4.0 | 0.00 | 0.00 | 0.00 | 60 | 996.8 |
| 20260905094005 | 61 | 188 | 1.0 | 4.0 | 0.00 | 0.00 | 0.00 | 57 | 996.7 |
| 20260905093503 | 62 | 355 | 1.0 | 4.0 | 0.00 | 0.00 | 0.00 | 57 | 996.7 |
| 20260905093003 | 62 | 328 | 1.0 | 3.0 | 0.00 | 0.00 | 0.00 | 59 | 996.7 |
| 20260905092503 | 63 | 348 | 1.0 | 4.0 | 0.00 | 0.00 | 0.00 | 54 | 996.6 |
| 20260905092215 | 63 | 355 | 1.0 | 4.0 | 0.00 | 0.00 | 0.00 | 53 | 996.6 |
| 20260905091503 | 65 | 270 | 0.0 | 2.0 | 0.00 | 0.00 | 0.00 | 55 | 996.5 |
| 20260905091003 | 65 | 0 | 0.0 | 0.0 | 0.00 | 0.00 | 0.00 | 55 | 996.5 |
| 20260905090503 | 66 | 257 | 0.0 | 2.0 | 0.00 | 0.00 | 0.00 | 53 | 996.4 |
| 20260905090004 | 67 | 244 | 0.0 | 2.0 | 0.00 | 0.00 | 0.00 | 53 | 996.4 |
| 20260905085503 | 68 | 74 | 0.0 | 2.0 | 0.00 | 0.00 | 0.00 | 52 | 996.4 |
| 20260905085217 | 69 | 47 | 1.0 | 2.0 | 0.00 | 0.00 | 0.00 | 52 | 996.5 |
| 20260905084503 | 68 | 25 | 1.0 | 4.0 | 0.00 | 0.00 | 0.00 | 52 | 996.3 |
| 20260905084003 | 69 | 326 | 1.0 | 4.0 | 0.00 | 0.00 | 0.00 | 51 | 996.4 |
| 20260905083716 | 69 | 270 | 1.0 | 3.0 | 0.00 | 0.00 | 0.00 | 52 | 996.4 |
| 20260905083214 | 69 | 350 | 2.0 | 3.0 | 0.00 | 0.00 | 0.00 | 50 | 996.4 |
| 20260905082712 | 69 | 38 | 1.0 | 4.0 | 0.00 | 0.00 | 0.00 | 50 | 996.3 |
| 20260905082215 | 69 | 22 | 1.0 | 4.0 | 0.00 | 0.00 | 0.00 | 52 | 996.2 |
| 20260905081503 | 67 | 29 | 2.0 | 4.0 | 0.00 | 0.00 | 0.00 | 55 | 996.1 |
| 20260905081003 | 68 | 27 | 2.0 | 4.0 | 0.00 | 0.00 | 0.00 | 56 | 996.1 |
| 20260905080503 | 68 | 40 | 1.0 | 3.0 | 0.00 | 0.00 | 0.00 | 55 | 996.2 |
| 20260905080004 | 67 | 56 | 1.0 | 4.0 | 0.00 | 0.00 | 0.00 | 58 | 996.3 |
| 20260905075715 | 66 | 50 | 1.0 | 4.0 | 0.00 | 0.00 | 0.00 | 56 | 996.3 |
| 20260905075003 | 66 | 41 | 2.0 | 3.0 | 0.00 | 0.00 | 0.00 | 59 | 996.0 |
| 20260905074716 | 65 | 33 | 2.0 | 3.0 | 0.00 | 0.00 | 0.00 | 58 | 996.1 |
| 20260905074003 | 65 | 19 | 2.0 | 3.0 | 0.00 | 0.00 | 0.00 | 63 | 996.1 |
| 20260905073504 | 63 | 104 | 2.0 | 4.0 | 0.00 | 0.00 | 0.00 | 63 | 996.0 |
| 20260905073003 | 63 | 63 | 2.0 | 4.0 | 0.00 | 0.00 | 0.00 | 65 | 996.0 |
| 20260905072503 | 62 | 4 | 2.0 | 4.0 | 0.00 | 0.00 | 0.00 | 67 | 996.0 |
| 20260905072216 | 63 | 33 | 1.0 | 4.0 | 0.00 | 0.00 | 0.00 | 65 | 996.1 |
| 20260905071503 | 62 | 339 | 1.0 | 3.0 | 0.00 | 0.00 | 0.00 | 70 | 996.0 |
| 20260905071004 | 62 | 22 | 0.0 | 2.0 | 0.00 | 0.00 | 0.00 | 76 | 996.0 |
| 20260905070503 | 61 | 360 | 0.0 | 1.0 | 0.00 | 0.00 | 0.00 | 79 | 995.9 |
| 20260905070004 | 60 | 360 | 0.0 | 1.0 | 0.00 | 0.00 | 0.00 | 81 | 996.0 |
| 20260905065716 | 60 | 22 | 0.0 | 1.0 | 0.00 | 0.00 | 0.00 | 84 | 995.9 |
| 20260905065214 | 60 | 0 | 0.0 | 0.0 | 0.00 | 0.00 | 0.00 | 90 | 995.8 |
| 20260905064503 | 56 | 33 | 1.0 | 3.0 | 0.00 | 0.00 | 0.00 | 93 | 995.8 |
| 20260905064003 | 54 | 36 | 1.0 | 3.0 | 0.00 | 0.00 | 0.00 | 92 | 995.8 |
| 20260905063503 | 53 | 0 | 0.0 | 0.0 | 0.00 | 0.00 | 0.00 | 94 | 995.8 |
| 20260905063003 | 53 | 0 | 0.0 | 0.0 | 0.00 | 0.00 | 0.00 | 94 | 995.8 |
| 20260905062503 | 52 | 0 | 0.0 | 0.0 | 0.00 | 0.00 | 0.00 | 94 | 995.6 |
| 20260905062003 | 51 | 0 | 0.0 | 0.0 | 0.00 | 0.00 | 0.00 | 95 | 995.7 |
| 20260905061503 | 50 | 0 | 0.0 | 0.0 | 0.00 | 0.00 | 0.00 | 94 | 995.6 |
| 20260905061003 | 50 | 0 | 0.0 | 0.0 | 0.00 | 0.00 | 0.00 | 95 | 995.8 |
| 20260905060715 | 50 | 0 | 0.0 | 0.0 | 0.00 | 0.00 | 0.00 | 95 | 995.7 |